Location: Unspecified
(34.4950°S, 58.5160°W)
Time: 14:22:30
(UTC+00:00)

BlueWalker 3 - Pass Details

Date: 18 February 2026
Orbit: 451 x 458 km, 53.2° (Epoch: 4 March)

Event Time Altitude Azimuth Distance (km) Brightness Sun altitude
Rises 00:08:07 0° 298° (WNW) 2,463 6.0 -16.8°
Reaches altitude 10° 00:10:21 10° 289° (WNW) 1,598 5.1 -17.2°
Maximum altitude 00:13:43 36° 220° (SW) 742 3.3 -17.8°
Drops below altitude 10° 00:17:07 10° 151° (SSE) 1,618 4.5 -18.4°
Sets 00:19:24 0° 142° (SE) 2,500 5.4 -18.8°
